EA2AFZ-W Weather Reports


time (UTC)temp
F
wind
direction
speed
knots
gust
knots
rain 1hr
in
rain 24hr
in
rain mn
in
humidity
%
barometer
mb
20260508024514 53 320 9.6 9.6 0.00 0.00 0.00 87 1010.0
20260508021513 53 320 9.6 9.6 0.00 0.00 0.00 82 1010.0
20260508014511 53 320 9.6 9.6 0.00 0.00 0.00 77 1010.0
20260508011509 53 320 9.6 9.6 0.00 0.00 0.00 78 1010.0
20260508004506 54 320 9.6 9.6 0.00 0.00 0.00 78 1010.0
20260508001604 55 320 9.6 9.6 0.00 0.00 0.00 86 1010.0
20260507234602 55 320 9.6 9.6 0.00 0.00 0.00 82 1011.0
20260507231600 57 320 9.6 9.6 0.00 0.00 0.00 87 1011.0
20260507224557 57 320 9.6 9.6 0.00 0.00 0.00 85 1011.0
20260507221556 57 320 9.6 9.6 0.00 0.00 0.00 81 1011.0
20260507214553 57 320 9.6 9.6 0.00 0.00 0.00 71 1011.0
20260507211551 58 320 9.6 9.6 0.00 0.00 0.00 70 1010.0
20260507204549 58 320 9.6 9.6 0.00 0.00 0.00 64 1011.0
20260507201547 59 320 9.6 9.6 0.00 0.00 0.00 61 1010.0
20260507194545 60 320 9.6 9.6 0.00 0.00 0.00 58 1011.0
20260507191543 60 320 9.6 9.6 0.00 0.00 0.00 56 1010.0
20260507184540 60 320 9.6 9.6 0.00 0.00 0.00 62 1010.0
20260507181538 61 320 9.6 9.6 0.00 0.00 0.00 60 1009.0
20260507174536 62 320 9.6 9.6 0.00 0.00 0.00 57 1009.0
20260507171534 64 320 9.6 9.6 0.00 0.00 0.00 55 1009.0
20260507164532 66 320 10.4 10.4 0.00 0.00 0.00 47 1009.0
20260507161529 70 10 12.2 12.2 0.00 0.00 0.00 47 1009.0
20260507154527 71 0 7.0 7.0 0.00 0.00 0.00 55 1009.0
20260507151525 71 70 9.6 9.6 0.00 0.00 0.00 56 1009.0
20260507144522 70 90 12.2 12.2 0.00 0.00 0.00 49 1009.0
20260507141521 70 70 9.6 9.6 0.00 0.00 0.00 49 1009.0
20260507134518 71 80 7.0 7.0 0.00 0.00 0.00 48 1009.0
20260507131516 73 0 3.5 3.5 0.00 0.00 0.00 47 1009.0
20260507124515 68 0 3.5 3.5 0.00 0.00 0.00 49 1009.0
20260507121512 67 0 2.6 2.6 0.00 0.00 0.00 52 1010.0
20260507114509 65 194 4.3 4.3 0.00 0.00 0.00 55 1010.0
20260507111509 65 194 4.3 4.3 0.00 0.00 0.00 54 1011.0
20260507104506 63 0 0.9 0.9 0.00 0.00 0.00 63 1011.0
20260507101604 61 59 1.7 1.7 0.00 0.00 0.00 65 1012.0
20260507094602 59 151 0.9 0.9 0.00 0.00 0.00 67 1012.0
20260507091559 59 151 0.9 0.9 0.00 0.00 0.00 69 1012.0
20260507084556 58 151 0.9 0.9 0.00 0.00 0.00 74 1012.0
20260507081555 56 151 0.9 0.9 0.00 0.00 0.00 78 1013.0
20260507074552 55 151 0.9 0.9 0.00 0.00 0.00 81 1013.0
20260507071551 54 151 0.9 0.9 0.00 0.00 0.00 83 1013.0
20260507064549 54 151 1.7 1.7 0.00 0.00 0.00 84 1013.0
20260507061546 45 320 9.6 9.6 0.00 0.00 0.00 83 1013.0
20260507054544 45 320 9.6 9.6 0.00 0.00 0.00 82 1013.0
20260507051541 45 320 9.6 9.6 0.00 0.00 0.00 82 1013.0
20260507044540 46 320 9.6 9.6 0.00 0.00 0.00 82 1013.0
20260507041538 46 320 9.6 9.6 0.00 0.00 0.00 82 1013.0
20260507034535 46 320 9.6 9.6 0.00 0.00 0.00 82 1013.0
20260507031534 46 320 9.6 9.6 0.00 0.00 0.00 82 1013.0